SALSAT (46495 NORAD) Tracking and Keplerian Element Data

This shows tracking and keplerian element data for the satellite.

Feedback or suggestion? Click here.




ElementValue
Catalog46495
NameSALSAT
Epoch Orbit449
Epoch Day302.5676041
Epoch Year2020
RAAN235.7741
Inclination97.6688
Eccentricity0.001745
Argument of Perigee133.9154
Mean Anonmoly226.3537
Mean Motion15.03235017
Decay Rate1.376E-05
L11 46495U 20068K 20302.56760410 .00001376 00000-0 10590-3 0 9995
L22 46495 97.6688 235.7741 0017450 133.9154 226.3537 15.03235017 4498

Live tracking and technical data element details for SALSAT (NORAD 46495). SALSAT can be tracked NOW for your location showing map with azimuth and elevation plus other details from your city location.

Track the satellite on the map from your city or location and see movement details for azimuth, elevation, latitude, longitude, range, height, and movement on the map or in text.







IsCatalogInMostPopularTable: catalog: 46495, numindb: 4
Update: records affected: 1



GetName: 46495 SALSAT

Hit Count: updated at: Fri, 30 Oct 2020 01:39:15 GMT